| time (UTC) | temp F | wind direction | speed MPH | gust MPH | rain 1hr in | rain 24hr in | rain mn in | humidity % | barometer mb |
| 20260508030018 | 40 | 0.0 | 0.0 | 0.00 | 0.01 | 0.01 | 63 | 1009.7 | |
| 20260508023017 | 41 | 0.0 | 0.0 | 0.00 | 0.01 | 0.01 | 61 | 1009.6 | |
| 20260508020017 | 41 | 0.0 | 0.0 | 0.00 | 0.01 | 0.01 | 60 | 1009.3 | |
| 20260508013017 | 43 | 0.0 | 0.0 | 0.00 | 0.01 | 0.01 | 59 | 1009.3 | |
| 20260508010016 | 44 | 0.0 | 0.0 | 0.00 | 0.01 | 0.01 | 59 | 1009.1 | |
| 20260508003017 | 45 | 0.0 | 0.0 | 0.00 | 0.02 | 0.01 | 61 | 1008.8 | |
| 20260508000037 | 48 | 0.0 | 6.0 | 0.00 | 0.02 | 0.01 | 54 | 1008.5 | |
| 20260507233016 | 50 | 270 | 1.0 | 9.0 | 0.00 | 0.02 | 0.01 | 49 | 1008.5 |
| 20260507230037 | 51 | 293 | 3.0 | 12.0 | 0.00 | 0.02 | 0.01 | 48 | 1008.4 |
| 20260507223017 | 50 | 293 | 5.0 | 13.0 | 0.00 | 0.02 | 0.01 | 47 | 1008.4 |
| 20260507220016 | 51 | 293 | 5.0 | 14.0 | 0.00 | 0.02 | 0.01 | 48 | 1008.5 |
| 20260507213018 | 51 | 270 | 5.0 | 14.0 | 0.00 | 0.03 | 0.01 | 47 | 1008.6 |
| 20260507210016 | 52 | 270 | 4.0 | 15.0 | 0.00 | 0.03 | 0.01 | 46 | 1008.9 |
| 20260507203016 | 54 | 293 | 6.0 | 14.0 | 0.00 | 0.04 | 0.01 | 45 | 1008.9 |
| 20260507200016 | 52 | 270 | 7.0 | 16.0 | 0.00 | 0.05 | 0.01 | 48 | 1009.1 |
| 20260507193016 | 51 | 270 | 6.0 | 15.0 | 0.00 | 0.05 | 0.01 | 48 | 1009.2 |
| 20260507190036 | 52 | 293 | 8.0 | 17.0 | 0.00 | 0.05 | 0.01 | 46 | 1009.6 |
| 20260507183016 | 51 | 270 | 6.0 | 16.0 | 0.00 | 0.05 | 0.01 | 50 | 1009.7 |
| 20260507180036 | 49 | 293 | 6.0 | 16.0 | 0.00 | 0.05 | 0.01 | 50 | 1009.8 |
| 20260507173016 | 52 | 293 | 5.0 | 15.0 | 0.00 | 0.05 | 0.01 | 51 | 1010.0 |
| 20260507170036 | 51 | 248 | 6.0 | 15.0 | 0.00 | 0.05 | 0.01 | 52 | 1010.2 |
| 20260507163016 | 49 | 293 | 6.0 | 18.0 | 0.00 | 0.06 | 0.01 | 57 | 1010.3 |
| 20260507160016 | 50 | 293 | 5.0 | 15.0 | 0.00 | 0.08 | 0.01 | 56 | 1010.6 |
| 20260507153016 | 48 | 270 | 4.0 | 12.0 | 0.00 | 0.13 | 0.01 | 59 | 1010.7 |
| 20260507150016 | 48 | 270 | 5.0 | 14.0 | 0.00 | 0.16 | 0.01 | 65 | 1011.0 |
| 20260507143016 | 46 | 293 | 5.0 | 15.0 | 0.00 | 0.18 | 0.01 | 65 | 1010.8 |
| 20260507140016 | 45 | 293 | 5.0 | 16.0 | 0.00 | 0.23 | 0.01 | 66 | 1011.1 |
| 20260507133016 | 44 | 293 | 5.0 | 16.0 | 0.00 | 0.30 | 0.01 | 64 | 1011.1 |
| 20260507130015 | 42 | 293 | 4.0 | 13.0 | 0.00 | 0.36 | 0.01 | 71 | 1010.8 |
| 20260507123016 | 41 | 293 | 2.0 | 11.0 | 0.00 | 0.38 | 0.01 | 72 | 1010.8 |
| 20260507120016 | 39 | 0.0 | 0.0 | 0.00 | 0.39 | 0.01 | 81 | 1010.6 | |
| 20260507113017 | 37 | 0.0 | 4.0 | 0.00 | 0.41 | 0.01 | 89 | 1010.3 | |
| 20260507110016 | 35 | 0.0 | 0.0 | 0.00 | 0.45 | 0.01 | 86 | 1010.1 | |
| 20260507103016 | 35 | 0.0 | 0.0 | 0.00 | 0.48 | 0.01 | 86 | 1009.8 | |
| 20260507100016 | 36 | 293 | 1.0 | 8.0 | 0.00 | 0.50 | 0.01 | 85 | 1009.8 |
| 20260507093018 | 37 | 293 | 3.0 | 12.0 | 0.00 | 0.52 | 0.01 | 84 | 1009.7 |
| 20260507090017 | 37 | 293 | 1.0 | 8.0 | 0.00 | 0.52 | 0.01 | 88 | 1009.8 |
| 20260507083039 | 38 | 293 | 1.0 | 5.0 | 0.00 | 0.52 | 0.01 | 90 | 1009.9 |
| 20260507080017 | 39 | 293 | 1.0 | 8.0 | 0.00 | 0.52 | 0.01 | 91 | 1010.2 |
| 20260507073019 | 40 | 293 | 3.0 | 15.0 | 0.01 | 0.52 | 0.01 | 92 | 1010.5 |
| 20260507070017 | 42 | 293 | 2.0 | 11.0 | 0.01 | 0.52 | 0.01 | 95 | 1010.4 |
| 20260507063017 | 42 | 270 | 1.0 | 11.0 | 0.00 | 0.51 | 0.00 | 95 | 1010.1 |
| 20260507060017 | 42 | 293 | 1.0 | 9.0 | 0.00 | 0.51 | 0.00 | 95 | 1009.6 |
| 20260507053017 | 43 | 0.0 | 7.0 | 0.00 | 0.51 | 0.00 | 95 | 1010.0 | |
| 20260507050019 | 43 | 0.0 | 0.0 | 0.00 | 0.51 | 0.00 | 95 | 1010.3 | |
| 20260507043017 | 43 | 0.0 | 0.0 | 0.00 | 0.51 | 0.00 | 95 | 1010.1 | |
| 20260507040017 | 43 | 0.0 | 0.0 | 0.00 | 0.51 | 0.51 | 95 | 1009.9 | |
| 20260507033017 | 43 | 0.0 | 0.0 | 0.00 | 0.51 | 0.51 | 95 | 1010.0 |